Weather observations for the past three days for
Warsaw, Warsaw Municipal Airport
Metric (Imperial)
Date Time (edt) Wind (kph) Vis. (km) Weather Sky Cond. Temperature (ºC) Relative Humidity Wind Chill (°C) Heat Index (°C) Pressure Precipitation (cm)
Air Dwpt 6 hour altimeter (cm) sea level (mb) 1 hr 3 hr 6 hr
Max. Min.
03 22:35 S 6 16.09 Fair CLR 9.7 5.7 76% 75.72 0.0
03 22:15 S 7 16.09 Fair CLR 9.6 5.7 77% 9 75.72 0.0
03 21:55 S 6 16.09 Fair CLR 9.7 5.7 76% 75.72 0.0
03 21:35 S 6 16.09 Fair CLR 9.7 5.8 77% 75.72 0.0
03 21:15 S 7 16.09 Fair CLR 10 6 76% 9 75.72 0.0
03 20:55 S 6 16.09 Fair CLR 10.1 6 76% 75.72 0.0
03 20:35 S 6 16.09 Fair CLR 10.5 6.1 74% 75.72 0.0
03 20:15 S 9 16.09 Mostly Cloudy SCT100 BKN120 11 6 72% 75.72 0.0
03 19:55 S 9 16.09 Mostly Cloudy BKN100 11.3 6 70% 75.74 0.0
03 19:35 S 11 16.09 Partly Cloudy SCT075 SCT110 10.8 5.7 71% 75.77 0.0
03 19:15 S 7 16.09 Partly Cloudy SCT075 SCT110 11.1 5.7 70% 75.79 0.0
03 18:55 S 9 16.09 Partly Cloudy SCT110 10.9 5.5 70% 75.82 0.0
03 18:35 S 15 16.09 Mostly Cloudy BKN100 11.2 5.6 69% 75.82 0.0
03 18:15 S 13 16.09 Overcast OVC090 10.8 5.7 71% 75.84 0.0
03 17:55 S 7 16.09 Overcast OVC090 9.9 5.5 74% 9 75.84 0.0
03 17:35 S 9 16.09 Overcast OVC090 9.2 5.2 76% 8 75.84 0.0
03 17:15 S 11 16.09 Overcast OVC080 9 5.1 77% 8 75.87 0.0
03 16:55 S 11 16.09 Light Rain SCT060 OVC070 8.8 5.1 78% 7 75.9 0.0
03 16:35 S 9 16.09 Overcast SCT050 BKN060 OVC075 9 5.4 78% 8 75.95 0.0
03 16:15 S 13 16.09 Drizzle BKN049 OVC060 9.1 5.1 76% 7 76 0.0
03 15:55 SW 20 G 37 16.09 Rain BKN047 OVC060 9.6 4.9 73% 7 76.07 0.0
03 15:35 W 31 G 56 16.09 Light Rain SCT050 BKN055 BKN065 10.8 4.2 64% 76.07 0.0
03 15:15 W 35 G 56 16.09 Partly Cloudy and Breezy SCT050 SCT065 12.6 3 52% 76.05 0.0
03 14:55 W 35 G 46 16.09 Overcast and Breezy BKN050 BKN070 OVC100 14.1 2.5 46% 76.02 0.0
03 14:35 W 31 G 54 16.09 Mostly Cloudy BKN110 14.9 2.3 43% 76 0.0
03 14:15 SW 24 G 39 16.09 Mostly Cloudy BKN110 15 1.4 40% 76.02 0.0
03 13:55 SW 26 G 43 16.09 Fair CLR 15 1.3 40% 76.05 0.0
03 13:35 SW 33 G 43 16.09 Fair and Breezy CLR 14.8 1.7 41% 76.07 0.0
03 13:15 SW 28 G 41 16.09 Fair CLR 14.6 1.6 42% 76.1 0.0
03 12:55 W 30 G 37 16.09 Fair CLR 14.5 1.4 41% 76.12 0.0
03 12:35 SW 28 G 39 16.09 Fair CLR 14.4 0.9 40% 76.12 0.0
03 12:15 SW 20 G 37 16.09 Fair CLR 13.6 1 43% 76.15 0.0
03 11:55 SW 22 G 31 16.09 Fair CLR 14 0.8 41% 76.17 0.0
03 11:35 SW 28 G 43 16.09 Fair CLR 13.3 0.6 42% 76.17 0.0
03 11:15 SW 22 G 37 16.09 Fair CLR 13 0.9 44% 76.2 0.0
03 10:55 SW 24 G 37 16.09 Fair CLR 12.3 0.4 44% 76.2 0.0
03 10:35 SW 24 G 35 16.09 Fair CLR 11.9 0 44% 76.23 0.0
03 10:15 SW 22 G 35 16.09 Fair CLR 12 0.2 45% 76.23 0.0
03 09:55 SW 24 G 39 16.09 Partly Cloudy SCT090 11.3 -0.2 45% 76.23 0.0
03 09:35 SW 19 G 26 16.09 Partly Cloudy SCT090 10.9 -0.1 47% 76.23 0.0
03 09:15 W 24 G 33 16.09 Fair CLR 10 -0.4 49% 7 76.23 0.0
03 08:55 W 30 G 39 16.09 Fair CLR 9.2 -1 49% 6 76.23 0.0
03 08:35 SW 19 G 26 16.09 Fair CLR 8.8 -0.7 52% 6 76.23 0.0
03 08:15 SW 15 G 30 16.09 Fair CLR 7.9 -1.6 51% 6 76.23 0.0
03 07:55 W 15 16.09 Fair CLR 7 -1.7 54% 5 76.23 0.0
03 07:35 SW 13 16.09 Fair CLR 6.3 -1.7 57% 4 76.23 0.0
03 07:15 SW 13 16.09 Fair CLR 5.9 -2 57% 3 76.2 0.0
03 06:55 SW 13 16.09 Fair CLR 5.5 -2 59% 3 76.2 0.0
03 06:35 SW 11 16.09 Fair CLR 5.5 -2 59% 3 76.2 0.0
03 06:15 SW 13 16.09 Fair CLR 5.7 -2.1 58% 3 76.2 0.0
03 05:55 SW 11 16.09 Fair CLR 5.8 -2.1 57% 4 76.2 0.0
03 05:35 SW 13 16.09 Fair CLR 5.9 -2.2 56% 3 76.2 0.0
03 05:15 SW 13 16.09 Fair CLR 6.2 -2.3 55% 4 76.2 0.0
03 04:55 SW 13 16.09 Fair CLR 6 -2.2 56% 4 76.23 0.0
03 04:35 SW 11 16.09 Fair CLR 5.6 -2.1 58% 3 76.2 0.0
03 04:15 SW 13 16.09 Fair CLR 5.7 -2.2 57% 3 76.23 0.0
03 03:55 SW 13 16.09 Fair CLR 5.6 -2.3 57% 3 76.23 0.0
03 03:35 SW 9 16.09 Fair CLR 5.4 -2.4 58% 4 76.23 0.0
03 03:15 Calm 16.09 Fair CLR 5.1 -2.5 58% 76.23 0.0
03 02:55 Calm 16.09 Fair CLR 4.7 -2.6 60% 76.25 0.0
03 02:35 Calm 16.09 Partly Cloudy SCT085 4.4 -2.5 61% 76.25 0.0
03 02:15 Calm 16.09 Partly Cloudy SCT085 4.4 -2.2 63% 76.28 0.0
03 01:55 Calm 16.09 Partly Cloudy SCT085 4.3 -2.4 62% 76.3 0.0
03 01:35 Calm 16.09 Fair CLR 4.6 -2.4 61% 76.3 0.0
03 00:50 Calm 16.09 Fair CLR 2.9 -0.8 77% 76.3 0.0
03 00:35 Calm 16.09 Fair CLR 3.2 -1.3 73% 76.3 0.0
03 00:15 Calm 16.09 Fair CLR 3.4 -1 73% 76.33 0.0
02 23:55 Calm 16.09 Fair CLR 2.9 -0.6 78% 76.33 0.0
02 23:35 Calm 16.09 Fair CLR 2.5 -0.5 81% 76.33 0.0
02 23:15 Calm 16.09 Fair CLR 3.2 -0.5 77% 76.33 0.0
02 22:55 Calm 16.09 Fair CLR 3.7 -1 72% 76.33 0.0
02 22:35 Calm 16.09 Fair CLR 3.8 -0.4 74% 76.33 0.0
02 22:15 Calm 16.09 Fair CLR 4 -0.1 75% 76.33 0.0
02 21:55 Calm 16.09 Fair CLR 4.6 -1.5 65% 76.33 0.0
02 21:35 Calm 16.09 Fair CLR 5.3 -3.2 55% 76.33 0.0
02 21:15 Calm 16.09 Fair CLR 5.7 -2.5 56% 76.33 0.0
02 20:55 Calm 16.09 Fair CLR 7.1 -4.5 44% 76.33 0.0
02 20:35 NW 6 16.09 Fair CLR 8.2 -5.3 38% 76.33 0.0
02 20:15 NW 7 16.09 Fair CLR 8.5 -5 38% 8 76.33 0.0
02 19:55 NW 7 16.09 Fair CLR 9 -5.8 35% 8 76.3 0.0
02 19:35 NW 17 16.09 Fair CLR 9.5 -5.5 35% 7 76.3 0.0
02 19:15 NW 19 G 28 16.09 Fair CLR 9.7 -5.3 35% 7 76.33 0.0
02 18:55 N 17 16.09 Fair CLR 10 -5.4 34% 8 76.33 0.0
02 18:35 NW 19 16.09 Fair CLR 10.2 -5.2 34% 76.33 0.0
02 18:15 NW 20 16.09 Fair CLR 10.1 -5.9 32% 76.33 0.0
02 17:55 NW 17 G 28 16.09 Fair CLR 10.3 -5.5 33% 76.33 0.0
02 17:35 NW 20 16.09 Fair CLR 10 -6.7 30% 8 76.33 0.0
02 17:15 NW 17 G 33 16.09 Fair CLR 10.4 -4 36% 76.33 0.0
02 16:55 NW 9 G 30 16.09 Partly Cloudy SCT065 10.2 -5 34% 76.33 0.0
02 16:35 NW 9 G 31 16.09 Partly Cloudy SCT065 10.1 -4.3 36% 76.35 0.0
02 16:15 NW 19 16.09 Mostly Cloudy BKN065 11 -3.2 37% 76.35 0.0
02 15:55 NW 15 G 35 16.09 Mostly Cloudy BKN065 10.7 -3.5 37% 76.38 0.0
02 15:35 NW 20 G 26 16.09 Mostly Cloudy BKN065 10.1 -3.4 39% 76.38 0.0
02 15:15 NW 20 G 35 16.09 Overcast OVC065 9.6 -3.9 39% 7 76.38 0.0
02 14:55 N 15 16.09 Mostly Cloudy BKN065 8.7 -3.7 42% 7 76.4 0.0
02 14:35 NW 19 G 26 16.09 Overcast OVC065 9.4 -3 42% 7 76.4 0.0
02 14:15 N 9 G 26 16.09 Overcast SCT050 OVC065 9 -2.9 43% 8 76.43 0.0
02 13:55 NW 17 16.09 Overcast SCT050 OVC065 8.4 -3.1 45% 6 76.43 0.0
02 13:35 NW 9 16.09 Mostly Cloudy SCT050 BKN065 8.1 -3.7 43% 7 76.45 0.0
02 13:15 NW 17 16.09 Overcast SCT050 OVC065 8.1 -3.4 44% 6 76.48 0.0
02 12:55 N 15 16.09 Mostly Cloudy SCT055 BKN065 8.3 -2.8 46% 6 76.48 0.0
02 12:35 NW 11 16.09 Overcast SCT046 OVC055 7.1 -3.8 46% 5 76.48 0.0
02 12:15 NW 9 16.09 Overcast SCT046 OVC055 6.9 -3 50% 5 76.5 0.0
02 11:55 N 15 16.09 Mostly Cloudy SCT042 SCT047 BKN055 6.8 -3.3 49% 4 76.5 0.0
02 11:35 NW 13 16.09 Overcast BKN042 OVC048 6.1 -3.1 52% 4 76.5 0.0
02 11:15 NW 11 G 17 16.09 Overcast BKN040 OVC050 6.8 -2.5 52% 5 76.5 0.0
02 10:55 N 13 16.09 Mostly Cloudy SCT038 BKN050 7.1 -1.9 53% 5 76.48 0.0
02 10:35 N 17 16.09 Partly Cloudy SCT031 SCT037 5.4 -2.3 58% 2 76.48 0.0
02 10:15 N 15 16.09 Mostly Cloudy SCT030 BKN038 5.9 -1.7 59% 3 76.48 0.0
02 09:55 N 11 16.09 Fair CLR 5.4 -0.9 64% 3 76.48 0.0
02 09:35 N 13 16.09 Partly Cloudy SCT019 4.8 -0.6 68% 2 76.48 0.0
02 09:15 N 17 16.09 Partly Cloudy SCT019 4.5 0 73% 1 76.45 0.0
02 08:55 N 15 16.09 Fair CLR 3.8 -0.3 75% 1 76.45 0.0
02 08:35 N 9 16.09 Fair CLR 3.6 -0.3 76% 1 76.45 0.0
02 08:15 N 11 16.09 Fair CLR 2.7 -1 77% 0 76.45 0.0
02 07:55 NW 7 16.09 Fair CLR 1.9 -2 76% 0 76.45 0.0
02 07:35 NW 6 16.09 Fair CLR 1 -2.5 78% 76.43 0.0
02 07:15 NW 6 16.09 Fair CLR 0.7 -2.9 77% 76.43 0.0
02 06:55 NW 7 16.09 Fair CLR 0.6 -3 77% -1 76.43 0.0
02 06:35 NW 7 16.09 Fair CLR 0.6 -3.2 76% -1 76.43 0.0
02 06:15 NW 7 16.09 Fair CLR 0.6 -3.1 77% -1 76.4 0.0
02 05:55 NW 9 16.09 Fair CLR 0 -3.1 80% -3 76.4 0.0
02 05:35 NW 7 16.09 Fair CLR 0 -3.1 80% -2 76.4 0.0
02 05:15 NW 9 16.09 Fair CLR 0.1 -3.2 79% -3 76.4 0.0
02 04:55 NW 9 16.09 Fair CLR 0.2 -3.3 78% -3 76.4 0.0
02 04:35 NW 9 16.09 Fair CLR 0 -3.5 78% -3 76.4 0.0
02 04:15 NW 9 16.09 Fair CLR -0.1 -3.6 78% -3 76.4 0.0
02 03:55 NW 6 16.09 Fair CLR 0.3 -3.5 76% 76.38 0.0
02 03:35 Calm 16.09 Fair CLR 0.5 -3.5 75% 76.38 0.0
02 03:15 Calm 16.09 Fair CLR -0.4 -3.6 79% 76.4 0.0
02 02:35 NW 6 16.09 Fair CLR 0.5 -3.7 74% 76.4 0.0
02 02:15 NW 6 16.09 Fair CLR 0.2 -3.6 76% 76.43 0.0
02 01:55 NW 7 16.09 Fair CLR 1 -3.6 72% -1 76.43 0.0
02 01:35 NW 7 16.09 Fair CLR 0.5 -3.4 75% -2 76.43 0.0
02 01:15 NW 7 16.09 Fair CLR 0.6 -3.1 77% -1 76.43 0.0
02 00:55 NW 7 16.09 Fair CLR 1.5 -3.3 71% -0 76.45 0.0
02 00:35 NW 9 16.09 Fair CLR 2.5 -3.5 65% 0 76.45 0.0
02 00:15 NW 9 16.09 Partly Cloudy SCT070 2.4 -3.2 67% 0 76.43 0.0
01 23:55 NW 9 16.09 Mostly Cloudy BKN070 2.6 -3 67% 0 76.43 0.0
01 23:35 NW 7 16.09 Fair CLR 2.2 -2.7 70% 0 76.4 0.0
01 23:15 NW 6 16.09 Fair CLR 2.9 -2.7 67% 76.4 0.0
01 22:55 NW 7 16.09 Partly Cloudy SCT070 3.5 -2.6 65% 2 76.38 0.0
01 22:35 N 6 16.09 Partly Cloudy SCT070 4 -2.5 63% 76.38 0.0
01 22:15 N 11 16.09 Mostly Cloudy BKN070 4.6 -2.4 61% 2 76.38 0.0
01 21:55 N 9 16.09 Partly Cloudy SCT070 4.7 -2.5 60% 3 76.35 0.0
01 21:35 N 9 16.09 Fair CLR 5 -2.5 59% 3 76.35 0.0
01 21:15 N 13 16.09 Fair CLR 5.4 -2.6 57% 3 76.33 0.0
01 20:55 N 7 16.09 Fair CLR 5.7 -2.7 55% 4 76.3 0.0
01 20:35 N 13 16.09 Fair CLR 6 -2.7 54% 4 76.3 0.0
01 20:15 N 15 16.09 Fair CLR 7 -2.9 50% 5 76.3 0.0
01 19:55 NW 17 16.09 Fair CLR 7.3 -2.9 49% 5 76.28 0.0
01 19:35 NW 19 G 30 16.09 Fair CLR 7.7 -3.1 47% 5 76.28 0.0
01 19:15 NW 17 G 30 16.09 Fair CLR 8.1 -3.4 44% 6 76.28 0.0
01 18:55 NW 20 G 26 16.09 Fair CLR 8.6 -2.8 45% 6 76.28 0.0
01 18:35 NW 19 G 35 16.09 Partly Cloudy SCT050 8.4 -2.6 46% 6 76.28 0.0
01 18:15 NW 28 16.09 Partly Cloudy SCT050 SCT080 9.3 -2.3 44% 6 76.25 0.0
01 17:55 NW 28 G 37 16.09 Mostly Cloudy SCT050 BKN080 8.9 -2.9 44% 6 76.25 0.0
01 17:35 NW 22 G 31 16.09 Overcast OVC050 10 -1.3 46% 7 76.25 0.0
01 17:15 N 22 G 31 16.09 Overcast OVC050 9.3 -1.7 46% 7 76.23 0.0
01 16:55 NW 28 G 39 16.09 Partly Cloudy SCT049 SCT065 SCT070 10.4 -1.3 44% 76.23 0.0
01 16:35 NW 24 G 37 16.09 Mostly Cloudy SCT049 BKN065 10.3 -1 46% 76.23 0.0
01 16:15 W 26 G 39 16.09 Overcast SCT047 OVC075 10.4 -1.2 45% 76.23 0.0
01 15:55 W 24 G 33 16.09 Overcast SCT042 BKN050 OVC075 10 0.3 51% 7 76.23 0.0
01 15:35 NW 31 G 39 16.09 Overcast SCT042 BKN047 OVC075 9.3 0.1 53% 6 76.2 0.0
01 15:15 NW 22 G 30 16.09 Overcast SCT044 SCT060 OVC075 9.8 0 51% 7 76.2 0.0
01 14:55 NW 15 16.09 Overcast SCT046 OVC075 10.5 -0.1 48% 76.2 0.0
01 14:35 NW 24 G 35 16.09 Mostly Cloudy SCT048 BKN075 10.6 0.1 49% 76.17 0.0
01 14:15 NW 19 G 26 16.09 Partly Cloudy SCT050 10.3 -0.2 48% 76.17 0.0
01 13:55 NW 24 G 31 16.09 Partly Cloudy SCT046 SCT070 10.5 0.6 51% 76.17 0.0
01 13:35 NW 24 G 31 16.09 Mostly Cloudy SCT046 SCT050 BKN070 10.7 1.1 52% 76.15 0.0
01 13:15 N 11 16.09 Partly Cloudy SCT039 SCT045 SCT070 10.5 0.7 51% 76.15 0.0
01 12:55 W 24 G 31 16.09 Mostly Cloudy SCT033 BKN041 BKN050 9.2 0.3 54% 6 76.15 0.0
01 12:35 NW 13 16.09 Mostly Cloudy BKN033 BKN041 9 1.8 61% 7 76.15 0.0
01 12:15 W 13 16.09 Partly Cloudy SCT026 SCT033 9.1 2 61% 7 76.17 0.0
01 11:55 NW 20 G 30 16.09 Mostly Cloudy BKN025 BKN031 8.4 2.3 66% 6 76.17 0.0
01 11:35 NW 17 16.09 Overcast SCT020 BKN027 OVC034 6.9 1.9 71% 4 76.17 0.0
01 11:15 NW 15 G 26 16.09 Mostly Cloudy SCT018 BKN027 6.6 1.9 72% 4 76.17 0.0
01 10:55 N 11 16.09 Mostly Cloudy BKN016 BKN021 6.3 2.6 77% 4 76.17 0.0
01 10:35 N 11 16.09 Overcast BKN014 OVC018 5.7 2.7 81% 4 76.17 0.0
01 10:15 N 11 16.09 Overcast OVC012 4.9 2.1 82% 3 76.15 0.0
01 09:55 N 11 16.09 Overcast BKN010 BKN065 OVC100 4.5 2.6 88% 2 76.12 0.0
01 09:35 NE 6 16.09 Light Drizzle SCT010 BKN031 OVC060 4 2.3 89% 76.12 0.0
01 08:55 N 9 16.09 Light Rain SCT010 OVC050 3.7 2.1 89% 2 76.1 0.0
01 08:35 N 6 16.09 Overcast SCT041 OVC047 3.3 2 91% 76.1 0.0
01 08:15 NE 9 16.09 Overcast OVC036 3 1.9 93% 1 76.07 0.0
01 07:55 NE 9 16.09 Overcast SCT009 SCT019 OVC032 2.7 1.7 93% 0 76.05 0.0
01 07:35 NE 9 16.09 Overcast BKN008 BKN019 OVC030 2.6 1.5 93% 0 76.05 0.0
01 07:15 NE 13 16.09 Overcast OVC008 2.6 1.6 93% -0 76.05 0.0
01 06:55 NE 19 16.09 Light Rain BKN008 OVC021 2.5 1.5 93% -1 76.02 0.0 0.05
01 06:35 NE 15 11.27 Light Rain BKN008 OVC021 2.6 1.6 93% -1 76 0.0 0.03
01 06:15 NE 13 16.09 Rain BKN008 OVC027 3 1.8 92% 0 76 0.0
01 05:55 NE 13 16.09 Light Rain SCT008 OVC027 3.2 2 92% 0 76.02 0.0
01 05:35 E 20 16.09 Overcast SCT008 OVC027 3 2 93% -1 76 0.0
01 05:15 NE 19 16.09 Overcast SCT008 OVC027 3.1 2 93% -1 76 0.0
01 04:55 NE 11 16.09 Light Rain BKN008 OVC027 3.3 2.3 93% 1 76.02 0.0 0.1
01 04:35 NE 13 16.09 Light Rain OVC008 3.5 2.5 93% 1 76.02 0.0 0.1
01 04:15 NE 13 11.27 Rain OVC008 3.7 2.6 93% 1 76.02 0.0 0.08
01 03:55 N 11 11.27 Rain BKN008 OVC019 4 3 93% 2 76.02 0.0 0.2
01 03:35 NE 11 16.09 Rain BKN008 OVC021 4.3 3 91% 2 76 0.0 0.1
01 03:15 NE 20 11.27 Rain BKN008 BKN025 OVC034 4.6 3.5 93% 1 76 0.0 0.05
01 02:55 NE 15 11.27 Rain SCT010 BKN025 OVC035 5 3.7 91% 2 76.02 0.0 0.25
01 02:35 N 13 11.27 Rain BKN010 BKN016 OVC032 5.5 4.4 93% 3 76.05 0.0 0.15
01 02:15 N 13 8.05 Rain SCT010 BKN024 OVC035 5.7 4.5 92% 3 76.05 0.0 0.1
01 01:55 NE 7 16.09 Light Drizzle SCT010 SCT022 OVC037 6.2 5 92% 5 76.05 0.0 0.03
01 01:35 NE 9 16.09 Rain SCT031 OVC039 6.5 4.7 88% 5 76.05 0.0 0.03
01 01:15 NE 11 16.09 Overcast OVC041 6.5 4.5 87% 5 76.05 0.0
01 00:55 NE 9 16.09 Light Drizzle BKN039 BKN046 OVC050 6.5 4.9 90% 5 76.05 0.0 0.03
01 00:35 E 9 16.09 Light Rain BKN039 BKN045 OVC060 6.5 4.7 88% 5 76.05 0.0 0.03
01 00:15 NE 11 16.09 Light Rain BKN031 OVC038 6.9 5 88% 5 76.07 0.0 0.03
30 23:55 NE 6 16.09 Rain BKN034 OVC040 7.4 5 85% 76.1 0.0 0.08
30 23:35 Calm 16.09 Rain OVC036 7.8 5.1 83% 76.12 0.0 0.03
30 23:15 Calm 16.09 Light Rain BKN042 OVC048 8.1 5 81% 76.12 0.0
30 22:55 NE 7 16.09 Overcast SCT044 OVC050 8 5.2 83% 7 76.12 0.0
Date Time (edt) Wind (kph) Vis. (km) Weather Sky Cond. Air Dwpt Max. Min. Relative Humidity Wind Chill (°C) Heat Index (°C) altimeter (cm) sea level (mb) 1 hr 3 hr 6 hr
6 hour
Temperature (ºC) Pressure Precipitation (cm)